Location: *
(41.0833°N, 73.4167°W)
Time: 12:57:58
(UTC+00:00)

USA 234 - Pass Details

Date: 22 October 2019
Orbit: 1098 x 1109 km, 123.0° (Epoch: 20 November)

Event Time Altitude Azimuth Distance (km) Brightness Sun altitude
Rises 10:36:18 0° 157° (SSE) 3,899 6.6 -7.6°
Reaches altitude 10° 10:38:58 10° 165° (SSE) 2,946 5.8 -7.1°
Maximum altitude 10:44:56 38° 232° (SW) 1,614 3.9 -6.0°
Drops below altitude 10° 10:50:57 10° 299° (WNW) 2,966 4.9 -4.9°
Enters shadow 10:53:16 - 306° (NW) 3,783 5.5 -4.4°
